owner,sensor,date,latitude,longitude,vertical_datum,sea_water_temperature,qcFlag 
TABS,ioos:station:wmo:42044:1,2010-03-25T07:00:00Z,26.1914,-97.0507,-2.0,18.83,11111222 
TABS,ioos:station:wmo:42044:1,2010-03-25T07:30:00Z,26.1914,-97.0507,-2.0,18.11,11111222 
TABS,ioos:station:wmo:42044:1,2010-03-25T08:00:00Z,26.1914,-97.0507,-2.0,18.0,11111222 
TABS,ioos:station:wmo:42044:1,2010-03-25T08:30:00Z,26.1914,-97.0507,-2.0,17.99,11111222 
TABS,ioos:station:wmo:42044:1,2010-03-25T09:00:00Z,26.1914,-97.0507,-2.0,18.0,11111222 
TABS,ioos:station:wmo:42044:1,2010-03-25T09:30:00Z,26.1914,-97.0507,-2.0,18.01,11111222 
TABS,ioos:station:wmo:42044:1,2010-03-25T10:00:00Z,26.1914,-97.0507,-2.0,18.0,11111222 
TABS,ioos:station:wmo:42044:1,2010-03-25T10:30:00Z,26.1914,-97.0507,-2.0,18.02,11111222 
TABS,ioos:station:wmo:42044:1,2010-03-25T11:00:00Z,26.1914,-97.0507,-2.0,18.03,11111222 
TABS,ioos:station:wmo:42044:1,2010-03-25T11:30:00Z,26.1914,-97.0507,-2.0,18.08,11111222 
TABS,ioos:station:wmo:42044:1,2010-03-25T12:00:00Z,26.1914,-97.0507,-2.0,18.04,11111222 
TABS,ioos:station:wmo:42044:1,2010-03-25T12:30:00Z,26.1914,-97.0507,-2.0,18.03,11111222 
TABS,ioos:station:wmo:42044:1,2010-03-25T13:00:00Z,26.1914,-97.0507,-2.0,18.04,11111222 
TABS,ioos:station:wmo:42044:1,2010-03-25T13:30:00Z,26.1914,-97.0507,-2.0,18.07,11111222 
TABS,ioos:station:wmo:42044:1,2010-03-25T14:00:00Z,26.1914,-97.0507,-2.0,18.02,11111222 
TABS,ioos:station:wmo:42044:1,2010-03-25T14:30:00Z,26.1914,-97.0507,-2.0,18.02,11111222 
TABS,ioos:station:wmo:42044:1,2010-03-25T15:00:00Z,26.1914,-97.0507,-2.0,18.04,11111222 
TABS,ioos:station:wmo:42044:1,2010-03-25T15:30:00Z,26.1914,-97.0507,-2.0,18.03,11111222 
TABS,ioos:station:wmo:42044:1,2010-03-25T16:00:00Z,26.1914,-97.0507,-2.0,18.0,11111222 
TABS,ioos:station:wmo:42044:1,2010-03-25T16:30:00Z,26.1914,-97.0507,-2.0,18.0,11111222 
TABS,ioos:station:wmo:42044:1,2010-03-25T17:00:00Z,26.1914,-97.0507,-2.0,18.04,11111222 
TABS,ioos:station:wmo:42044:1,2010-03-25T17:30:00Z,26.1914,-97.0507,-2.0,18.09,11111222 
TABS,ioos:station:wmo:42044:1,2010-03-25T18:00:00Z,26.1914,-97.0507,-2.0,18.13,11111222 
TABS,ioos:station:wmo:42044:1,2010-03-25T18:30:00Z,26.1914,-97.0507,-2.0,18.17,11111222 
TABS,ioos:station:wmo:42044:1,2010-03-25T19:00:00Z,26.1914,-97.0507,-2.0,18.19,11111222 
TABS,ioos:station:wmo:42044:1,2010-03-25T19:30:00Z,26.1914,-97.0507,-2.0,18.23,11111222 
TABS,ioos:station:wmo:42044:1,2010-03-25T20:00:00Z,26.1914,-97.0507,-2.0,18.26,11111222 
TABS,ioos:station:wmo:42044:1,2010-03-25T20:30:00Z,26.1914,-97.0507,-2.0,18.28,11111222 
TABS,ioos:station:wmo:42044:1,2010-03-25T21:00:00Z,26.1914,-97.0507,-2.0,18.29,11111222 
TABS,ioos:station:wmo:42044:1,2010-03-25T21:30:00Z,26.1914,-97.0507,-2.0,18.3,11111222 
TABS,ioos:station:wmo:42044:1,2010-03-25T22:00:00Z,26.1914,-97.0507,-2.0,18.32,11111222 
TABS,ioos:station:wmo:42044:1,2010-03-25T22:30:00Z,26.1914,-97.0507,-2.0,18.35,11111222 
TABS,ioos:station:wmo:42044:1,2010-03-25T23:00:00Z,26.1914,-97.0507,-2.0,18.37,11111222 
TABS,ioos:station:wmo:42044:1,2010-03-25T23:30:00Z,26.1914,-97.0507,-2.0,18.37,11111222 
TABS,ioos:station:wmo:42044:1,2010-03-26T00:00:00Z,26.1914,-97.0507,-2.0,18.36,11111222 
TABS,ioos:station:wmo:42044:1,2010-03-26T00:30:00Z,26.1914,-97.0507,-2.0,18.34,11111222 
TABS,ioos:station:wmo:42044:1,2010-03-26T01:00:00Z,26.1914,-97.0507,-2.0,18.31,11111222 
TABS,ioos:station:wmo:42044:1,2010-03-26T01:30:00Z,26.1914,-97.0507,-2.0,18.3,11111222 
TABS,ioos:station:wmo:42044:1,2010-03-26T02:00:00Z,26.1914,-97.0507,-2.0,18.28,11111222 
TABS,ioos:station:wmo:42044:1,2010-03-26T02:30:00Z,26.1914,-97.0507,-2.0,18.28,11111222 
TABS,ioos:station:wmo:42044:1,2010-03-26T03:00:00Z,26.1914,-97.0507,-2.0,18.27,11111222 
TABS,ioos:station:wmo:42044:1,2010-03-26T03:30:00Z,26.1914,-97.0507,-2.0,18.27,11111222 
TABS,ioos:station:wmo:42044:1,2010-03-26T04:00:00Z,26.1914,-97.0507,-2.0,18.27,11111222 
TABS,ioos:station:wmo:42044:1,2010-03-26T04:30:00Z,26.1914,-97.0507,-2.0,18.26,11111222 
TABS,ioos:station:wmo:42044:1,2010-03-26T05:00:00Z,26.1914,-97.0507,-2.0,18.26,11111222 
TABS,ioos:station:wmo:42044:1,2010-03-26T05:30:00Z,26.1914,-97.0507,-2.0,18.25,11111222 
TABS,ioos:station:wmo:42044:1,2010-03-26T06:00:00Z,26.1914,-97.0507,-2.0,18.25,11111222 
TABS,ioos:station:wmo:42044:1,2010-03-26T06:30:00Z,26.1914,-97.0507,-2.0,18.24,11111222 
TABS,ioos:station:wmo:42044:1,2010-03-26T07:00:00Z,26.1914,-97.0507,-2.0,18.24,11111222 
TABS,ioos:station:wmo:42044:1,2010-03-26T07:30:00Z,26.1914,-97.0507,-2.0,18.24,11111222 
TABS,ioos:station:wmo:42044:1,2010-03-26T08:00:00Z,26.1914,-97.0507,-2.0,18.23,11111222 
TABS,ioos:station:wmo:42044:1,2010-03-26T08:30:00Z,26.1914,-97.0507,-2.0,18.23,11111222 
TABS,ioos:station:wmo:42044:1,2010-03-26T09:00:00Z,26.1914,-97.0507,-2.0,18.23,11111222 
TABS,ioos:station:wmo:42044:1,2010-03-26T09:30:00Z,26.1914,-97.0507,-2.0,18.23,11111222 
TABS,ioos:station:wmo:42044:1,2010-03-26T10:00:00Z,26.1914,-97.0507,-2.0,18.22,11111222 
TABS,ioos:station:wmo:42044:1,2010-03-26T10:30:00Z,26.1914,-97.0507,-2.0,18.21,11111222 
TABS,ioos:station:wmo:42044:1,2010-03-26T11:00:00Z,26.1914,-97.0507,-2.0,18.21,11111222 
TABS,ioos:station:wmo:42044:1,2010-03-26T11:30:00Z,26.1914,-97.0507,-2.0,18.2,11111222 
TABS,ioos:station:wmo:42044:1,2010-03-26T12:00:00Z,26.1914,-97.0507,-2.0,18.2,11111222 
TABS,ioos:station:wmo:42044:1,2010-03-26T12:30:00Z,26.1914,-97.0507,-2.0,18.19,11111222 
TABS,ioos:station:wmo:42044:1,2010-03-26T13:00:00Z,26.1914,-97.0507,-2.0,18.19,11111222 
TABS,ioos:station:wmo:42044:1,2010-03-26T13:30:00Z,26.1914,-97.0507,-2.0,18.2,11111222 
TABS,ioos:station:wmo:42044:1,2010-03-26T14:00:00Z,26.1914,-97.0507,-2.0,18.2,11111222 
TABS,ioos:station:wmo:42044:1,2010-03-26T14:30:00Z,26.1914,-97.0507,-2.0,18.21,11111222 
TABS,ioos:station:wmo:42044:1,2010-03-26T15:00:00Z,26.1914,-97.0507,-2.0,18.23,11111222 
TABS,ioos:station:wmo:42044:1,2010-03-26T15:30:00Z,26.1914,-97.0507,-2.0,18.25,11111222 
TABS,ioos:station:wmo:42044:1,2010-03-26T16:00:00Z,26.1914,-97.0507,-2.0,18.28,11111222 
TABS,ioos:station:wmo:42044:1,2010-03-26T16:30:00Z,26.1914,-97.0507,-2.0,18.31,11111222 
TABS,ioos:station:wmo:42044:1,2010-03-26T17:00:00Z,26.1914,-97.0507,-2.0,18.35,11111222 
TABS,ioos:station:wmo:42044:1,2010-03-26T17:30:00Z,26.1914,-97.0507,-2.0,18.4,11111222 
TABS,ioos:station:wmo:42044:1,2010-03-26T18:00:00Z,26.1914,-97.0507,-2.0,18.45,11111222 
TABS,ioos:station:wmo:42044:1,2010-03-26T18:30:00Z,26.1914,-97.0507,-2.0,18.5,11111222 
TABS,ioos:station:wmo:42044:1,2010-03-26T19:00:00Z,26.1914,-97.0507,-2.0,18.58,11111222 
TABS,ioos:station:wmo:42044:1,2010-03-26T19:30:00Z,26.1914,-97.0507,-2.0,18.64,11111222 
TABS,ioos:station:wmo:42044:1,2010-03-26T20:00:00Z,26.1914,-97.0507,-2.0,18.69,11111222 
TABS,ioos:station:wmo:42044:1,2010-03-26T20:30:00Z,26.1914,-97.0507,-2.0,18.74,11111222 
TABS,ioos:station:wmo:42044:1,2010-03-26T21:00:00Z,26.1914,-97.0507,-2.0,18.74,11111222 
TABS,ioos:station:wmo:42044:1,2010-03-26T21:30:00Z,26.1914,-97.0507,-2.0,18.77,11111222 
TABS,ioos:station:wmo:42044:1,2010-03-26T22:00:00Z,26.1914,-97.0507,-2.0,18.72,11111222 
TABS,ioos:station:wmo:42044:1,2010-03-26T22:30:00Z,26.1914,-97.0507,-2.0,18.71,11111222 
TABS,ioos:station:wmo:42044:1,2010-03-26T23:00:00Z,26.1914,-97.0507,-2.0,18.68,11111222 
TABS,ioos:station:wmo:42044:1,2010-03-26T23:30:00Z,26.1914,-97.0507,-2.0,18.64,11111222 
TABS,ioos:station:wmo:42044:1,2010-03-27T00:00:00Z,26.1914,-97.0507,-2.0,18.61,11111222 
TABS,ioos:station:wmo:42044:1,2010-03-27T00:30:00Z,26.1914,-97.0507,-2.0,18.57,11111222 
TABS,ioos:station:wmo:42044:1,2010-03-27T01:00:00Z,26.1914,-97.0507,-2.0,18.53,11111222 
TABS,ioos:station:wmo:42044:1,2010-03-27T01:30:00Z,26.1914,-97.0507,-2.0,18.52,11111222 
TABS,ioos:station:wmo:42044:1,2010-03-27T02:00:00Z,26.1914,-97.0507,-2.0,18.53,11111222 
TABS,ioos:station:wmo:42044:1,2010-03-27T02:30:00Z,26.1914,-97.0507,-2.0,18.52,11111222 
TABS,ioos:station:wmo:42044:1,2010-03-27T03:00:00Z,26.1914,-97.0507,-2.0,18.51,11111222 
TABS,ioos:station:wmo:42044:1,2010-03-27T03:30:00Z,26.1914,-97.0507,-2.0,18.52,11111222 
TABS,ioos:station:wmo:42044:1,2010-03-27T04:00:00Z,26.1914,-97.0507,-2.0,18.55,11111222 
TABS,ioos:station:wmo:42044:1,2010-03-27T04:30:00Z,26.1914,-97.0507,-2.0,18.55,11111222 
TABS,ioos:station:wmo:42044:1,2010-03-27T05:00:00Z,26.1914,-97.0507,-2.0,18.53,11111222 
TABS,ioos:station:wmo:42044:1,2010-03-27T05:30:00Z,26.1914,-97.0507,-2.0,18.55,11111222 
TABS,ioos:station:wmo:42044:1,2010-03-27T06:00:00Z,26.1914,-97.0507,-2.0,18.6,11111222 
TABS,ioos:station:wmo:42044:1,2010-03-27T06:30:00Z,26.1914,-97.0507,-2.0,18.59,11111222 
TABS,ioos:station:wmo:42044:1,2010-03-27T07:00:00Z,26.1914,-97.0507,-2.0,18.56,11111222 
TABS,ioos:station:wmo:42044:1,2010-03-27T07:30:00Z,26.1914,-97.0507,-2.0,18.55,11111222 
TABS,ioos:station:wmo:42044:1,2010-03-27T08:00:00Z,26.1914,-97.0507,-2.0,18.56,11111222 
TABS,ioos:station:wmo:42044:1,2010-03-27T08:30:00Z,26.1914,-97.0507,-2.0,18.56,11111222 
TABS,ioos:station:wmo:42044:1,2010-03-27T09:00:00Z,26.1914,-97.0507,-2.0,18.56,11111222 
TABS,ioos:station:wmo:42044:1,2010-03-27T09:30:00Z,26.1914,-97.0507,-2.0,18.54,11111222 
TABS,ioos:station:wmo:42044:1,2010-03-27T10:00:00Z,26.1914,-97.0507,-2.0,18.54,11111222 
TABS,ioos:station:wmo:42044:1,2010-03-27T10:30:00Z,26.1914,-97.0507,-2.0,18.52,11111222 
TABS,ioos:station:wmo:42044:1,2010-03-27T11:00:00Z,26.1914,-97.0507,-2.0,18.51,11111222 
TABS,ioos:station:wmo:42044:1,2010-03-27T11:30:00Z,26.1914,-97.0507,-2.0,18.52,11111222 
TABS,ioos:station:wmo:42044:1,2010-03-27T12:00:00Z,26.1914,-97.0507,-2.0,18.52,11111222 
TABS,ioos:station:wmo:42044:1,2010-03-27T12:30:00Z,26.1914,-97.0507,-2.0,18.54,11111222 
TABS,ioos:station:wmo:42044:1,2010-03-27T13:00:00Z,26.1914,-97.0507,-2.0,18.56,11111222 
TABS,ioos:station:wmo:42044:1,2010-03-27T13:30:00Z,26.1914,-97.0507,-2.0,18.57,11111222 
TABS,ioos:station:wmo:42044:1,2010-03-27T14:00:00Z,26.1914,-97.0507,-2.0,18.57,11111222 
TABS,ioos:station:wmo:42044:1,2010-03-27T14:30:00Z,26.1914,-97.0507,-2.0,18.58,11111222 
TABS,ioos:station:wmo:42044:1,2010-03-27T15:00:00Z,26.1914,-97.0507,-2.0,18.6,11111222 
TABS,ioos:station:wmo:42044:1,2010-03-27T15:30:00Z,26.1914,-97.0507,-2.0,18.62,11111222 
TABS,ioos:station:wmo:42044:1,2010-03-27T16:00:00Z,26.1914,-97.0507,-2.0,18.65,11111222 
TABS,ioos:station:wmo:42044:1,2010-03-27T16:30:00Z,26.1914,-97.0507,-2.0,18.69,11111222 
TABS,ioos:station:wmo:42044:1,2010-03-27T17:00:00Z,26.1914,-97.0507,-2.0,18.74,11111222 
TABS,ioos:station:wmo:42044:1,2010-03-27T17:30:00Z,26.1914,-97.0507,-2.0,18.81,11111222 
TABS,ioos:station:wmo:42044:1,2010-03-27T18:00:00Z,26.1914,-97.0507,-2.0,18.8,11111222 
TABS,ioos:station:wmo:42044:1,2010-03-27T18:30:00Z,26.1914,-97.0507,-2.0,18.88,11111222 
TABS,ioos:station:wmo:42044:1,2010-03-27T19:00:00Z,26.1914,-97.0507,-2.0,18.95,11111222 
TABS,ioos:station:wmo:42044:1,2010-03-27T19:30:00Z,26.1914,-97.0507,-2.0,19.01,11111222 
TABS,ioos:station:wmo:42044:1,2010-03-27T20:00:00Z,26.1914,-97.0507,-2.0,19.07,11111222 
TABS,ioos:station:wmo:42044:1,2010-03-27T20:30:00Z,26.1914,-97.0507,-2.0,19.13,11111222 
TABS,ioos:station:wmo:42044:1,2010-03-27T21:00:00Z,26.1914,-97.0507,-2.0,19.17,11111222 
TABS,ioos:station:wmo:42044:1,2010-03-27T21:30:00Z,26.1914,-97.0507,-2.0,19.19,11111222 
TABS,ioos:station:wmo:42044:1,2010-03-27T22:00:00Z,26.1914,-97.0507,-2.0,19.24,11111222 
TABS,ioos:station:wmo:42044:1,2010-03-27T22:30:00Z,26.1914,-97.0507,-2.0,19.23,11111222 
TABS,ioos:station:wmo:42044:1,2010-03-27T23:00:00Z,26.1914,-97.0507,-2.0,19.23,11111222 
TABS,ioos:station:wmo:42044:1,2010-03-27T23:30:00Z,26.1914,-97.0507,-2.0,19.22,11111222 
TABS,ioos:station:wmo:42044:1,2010-03-28T00:00:00Z,26.1914,-97.0507,-2.0,19.18,11111222 
TABS,ioos:station:wmo:42044:1,2010-03-28T00:30:00Z,26.1914,-97.0507,-2.0,19.15,11111222 
TABS,ioos:station:wmo:42044:1,2010-03-28T01:00:00Z,26.1914,-97.0507,-2.0,19.17,11111222 
TABS,ioos:station:wmo:42044:1,2010-03-28T01:30:00Z,26.1914,-97.0507,-2.0,19.15,11111222 
TABS,ioos:station:wmo:42044:1,2010-03-28T02:00:00Z,26.1914,-97.0507,-2.0,19.12,11111222 
TABS,ioos:station:wmo:42044:1,2010-03-28T02:30:00Z,26.1914,-97.0507,-2.0,19.11,11111222 
TABS,ioos:station:wmo:42044:1,2010-03-28T03:00:00Z,26.1914,-97.0507,-2.0,19.09,11111222 
TABS,ioos:station:wmo:42044:1,2010-03-28T03:30:00Z,26.1914,-97.0507,-2.0,19.15,11111222 
TABS,ioos:station:wmo:42044:1,2010-03-28T04:00:00Z,26.1914,-97.0507,-2.0,19.31,11111222 
TABS,ioos:station:wmo:42044:1,2010-03-28T04:30:00Z,26.1914,-97.0507,-2.0,19.32,11111222 
TABS,ioos:station:wmo:42044:1,2010-03-28T05:00:00Z,26.1914,-97.0507,-2.0,19.32,11111222 
TABS,ioos:station:wmo:42044:1,2010-03-28T05:30:00Z,26.1914,-97.0507,-2.0,19.3,11111222 
TABS,ioos:station:wmo:42044:1,2010-03-28T06:00:00Z,26.1914,-97.0507,-2.0,19.29,11111222 
TABS,ioos:station:wmo:42044:1,2010-03-28T06:30:00Z,26.1914,-97.0507,-2.0,19.29,11111222 
TABS,ioos:station:wmo:42044:1,2010-03-28T07:00:00Z,26.1914,-97.0507,-2.0,19.16,11111222 
TABS,ioos:station:wmo:42044:1,2010-03-28T07:30:00Z,26.1914,-97.0507,-2.0,19.02,11111222 
TABS,ioos:station:wmo:42044:1,2010-03-28T08:00:00Z,26.1914,-97.0507,-2.0,19.0,11111222 
TABS,ioos:station:wmo:42044:1,2010-03-28T08:30:00Z,26.1914,-97.0507,-2.0,19.01,11111222 
TABS,ioos:station:wmo:42044:1,2010-03-28T09:00:00Z,26.1914,-97.0507,-2.0,19.03,11111222 
TABS,ioos:station:wmo:42044:1,2010-03-28T09:30:00Z,26.1914,-97.0507,-2.0,19.04,11111222 
TABS,ioos:station:wmo:42044:1,2010-03-28T10:00:00Z,26.1914,-97.0507,-2.0,19.05,11111222 
TABS,ioos:station:wmo:42044:1,2010-03-28T10:30:00Z,26.1914,-97.0507,-2.0,19.07,11111222 
TABS,ioos:station:wmo:42044:1,2010-03-28T11:00:00Z,26.1914,-97.0507,-2.0,19.07,11111222 
TABS,ioos:station:wmo:42044:1,2010-03-28T11:30:00Z,26.1914,-97.0507,-2.0,19.09,11111222 
TABS,ioos:station:wmo:42044:1,2010-03-28T12:00:00Z,26.1914,-97.0507,-2.0,19.1,11111222 
TABS,ioos:station:wmo:42044:1,2010-03-28T12:30:00Z,26.1914,-97.0507,-2.0,19.1,11111222 
TABS,ioos:station:wmo:42044:1,2010-03-28T13:00:00Z,26.1914,-97.0507,-2.0,19.06,11111222 
TABS,ioos:station:wmo:42044:1,2010-03-28T13:30:00Z,26.1914,-97.0507,-2.0,19.05,11111222 
TABS,ioos:station:wmo:42044:1,2010-03-28T14:00:00Z,26.1914,-97.0507,-2.0,19.04,11111222 
TABS,ioos:station:wmo:42044:1,2010-03-28T14:30:00Z,26.1914,-97.0507,-2.0,19.0,11111222 
TABS,ioos:station:wmo:42044:1,2010-03-28T15:00:00Z,26.1914,-97.0507,-2.0,18.97,11111222 
TABS,ioos:station:wmo:42044:1,2010-03-28T15:30:00Z,26.1914,-97.0507,-2.0,18.98,11111222 
TABS,ioos:station:wmo:42044:1,2010-03-28T16:00:00Z,26.1914,-97.0507,-2.0,19.0,11111222 
TABS,ioos:station:wmo:42044:1,2010-03-28T16:30:00Z,26.1914,-97.0507,-2.0,19.01,11111222 
TABS,ioos:station:wmo:42044:1,2010-03-28T17:00:00Z,26.1914,-97.0507,-2.0,19.03,11111222 
TABS,ioos:station:wmo:42044:1,2010-03-28T17:30:00Z,26.1914,-97.0507,-2.0,19.05,11111222 
TABS,ioos:station:wmo:42044:1,2010-03-28T18:00:00Z,26.1914,-97.0507,-2.0,19.08,11111222 
TABS,ioos:station:wmo:42044:1,2010-03-28T18:30:00Z,26.1914,-97.0507,-2.0,19.09,11111222 
TABS,ioos:station:wmo:42044:1,2010-03-28T19:00:00Z,26.1914,-97.0507,-2.0,19.11,11111222 
TABS,ioos:station:wmo:42044:1,2010-03-28T19:30:00Z,26.1914,-97.0507,-2.0,19.15,11111222 
TABS,ioos:station:wmo:42044:1,2010-03-28T20:00:00Z,26.1914,-97.0507,-2.0,19.17,11111222 
TABS,ioos:station:wmo:42044:1,2010-03-28T20:30:00Z,26.1914,-97.0507,-2.0,19.17,11111222 
TABS,ioos:station:wmo:42044:1,2010-03-28T21:00:00Z,26.1914,-97.0507,-2.0,19.11,11111222 
TABS,ioos:station:wmo:42044:1,2010-03-28T21:30:00Z,26.1914,-97.0507,-2.0,19.05,11111222 
TABS,ioos:station:wmo:42044:1,2010-03-28T22:00:00Z,26.1914,-97.0507,-2.0,19.01,11111222 
TABS,ioos:station:wmo:42044:1,2010-03-28T22:30:00Z,26.1914,-97.0507,-2.0,18.99,11111222 
TABS,ioos:station:wmo:42044:1,2010-03-28T23:00:00Z,26.1914,-97.0507,-2.0,18.98,11111222 
TABS,ioos:station:wmo:42044:1,2010-03-28T23:30:00Z,26.1914,-97.0507,-2.0,18.97,11111222 
TABS,ioos:station:wmo:42044:1,2010-03-29T00:00:00Z,26.1914,-97.0507,-2.0,18.96,11111222 
TABS,ioos:station:wmo:42044:1,2010-03-29T00:30:00Z,26.1914,-97.0507,-2.0,18.95,11111222 
TABS,ioos:station:wmo:42044:1,2010-03-29T01:00:00Z,26.1914,-97.0507,-2.0,18.94,11111222 
TABS,ioos:station:wmo:42044:1,2010-03-29T01:30:00Z,26.1914,-97.0507,-2.0,18.93,11111222 
TABS,ioos:station:wmo:42044:1,2010-03-29T02:00:00Z,26.1914,-97.0507,-2.0,18.94,11111222 
TABS,ioos:station:wmo:42044:1,2010-03-29T02:30:00Z,26.1914,-97.0507,-2.0,18.94,11111222 
TABS,ioos:station:wmo:42044:1,2010-03-29T03:00:00Z,26.1914,-97.0507,-2.0,18.95,11111222 
TABS,ioos:station:wmo:42044:1,2010-03-29T03:30:00Z,26.1914,-97.0507,-2.0,18.95,11111222 
TABS,ioos:station:wmo:42044:1,2010-03-29T04:00:00Z,26.1914,-97.0507,-2.0,18.96,11111222 
TABS,ioos:station:wmo:42044:1,2010-03-29T04:30:00Z,26.1914,-97.0507,-2.0,18.96,11111222 
TABS,ioos:station:wmo:42044:1,2010-03-29T05:00:00Z,26.1914,-97.0507,-2.0,18.96,11111222 
TABS,ioos:station:wmo:42044:1,2010-03-29T05:30:00Z,26.1914,-97.0507,-2.0,18.95,11111222 
TABS,ioos:station:wmo:42044:1,2010-03-29T06:00:00Z,26.1914,-97.0507,-2.0,18.96,11111222 
TABS,ioos:station:wmo:42044:1,2010-03-29T06:30:00Z,26.1914,-97.0507,-2.0,18.95,11111222 
TABS,ioos:station:wmo:42044:1,2010-03-29T07:00:00Z,26.1914,-97.0507,-2.0,18.94,11111222 
TABS,ioos:station:wmo:42044:1,2010-03-29T07:30:00Z,26.1914,-97.0507,-2.0,18.94,11111222 
TABS,ioos:station:wmo:42044:1,2010-03-29T08:00:00Z,26.1914,-97.0507,-2.0,18.93,11111222 
TABS,ioos:station:wmo:42044:1,2010-03-29T08:30:00Z,26.1914,-97.0507,-2.0,18.92,11111222 
TABS,ioos:station:wmo:42044:1,2010-03-29T09:00:00Z,26.1914,-97.0507,-2.0,18.93,11111222 
TABS,ioos:station:wmo:42044:1,2010-03-29T09:30:00Z,26.1914,-97.0507,-2.0,18.91,11111222 
TABS,ioos:station:wmo:42044:1,2010-03-29T10:00:00Z,26.1914,-97.0507,-2.0,18.91,11111222 
TABS,ioos:station:wmo:42044:1,2010-03-29T10:30:00Z,26.1914,-97.0507,-2.0,18.91,11111222 
TABS,ioos:station:wmo:42044:1,2010-03-29T11:00:00Z,26.1914,-97.0507,-2.0,18.91,11111222 
TABS,ioos:station:wmo:42044:1,2010-03-29T11:30:00Z,26.1914,-97.0507,-2.0,18.9,11111222 
TABS,ioos:station:wmo:42044:1,2010-03-29T12:00:00Z,26.1914,-97.0507,-2.0,18.9,11111222 
TABS,ioos:station:wmo:42044:1,2010-03-29T12:30:00Z,26.1914,-97.0507,-2.0,18.89,11111222 
TABS,ioos:station:wmo:42044:1,2010-03-29T13:00:00Z,26.1914,-97.0507,-2.0,18.89,11111222 
TABS,ioos:station:wmo:42044:1,2010-03-29T13:30:00Z,26.1914,-97.0507,-2.0,18.9,11111222 
TABS,ioos:station:wmo:42044:1,2010-03-29T14:00:00Z,26.1914,-97.0507,-2.0,18.9,11111222 
TABS,ioos:station:wmo:42044:1,2010-03-29T14:30:00Z,26.1914,-97.0507,-2.0,18.91,11111222 
TABS,ioos:station:wmo:42044:1,2010-03-29T15:00:00Z,26.1914,-97.0507,-2.0,18.93,11111222 
TABS,ioos:station:wmo:42044:1,2010-03-29T15:30:00Z,26.1914,-97.0507,-2.0,18.96,11111222 
TABS,ioos:station:wmo:42044:1,2010-03-29T16:00:00Z,26.1914,-97.0507,-2.0,18.98,11111222 
TABS,ioos:station:wmo:42044:1,2010-03-29T16:30:00Z,26.1914,-97.0507,-2.0,19.03,11111222 
TABS,ioos:station:wmo:42044:1,2010-03-29T17:00:00Z,26.1914,-97.0507,-2.0,19.07,11111222 
TABS,ioos:station:wmo:42044:1,2010-03-29T17:30:00Z,26.1914,-97.0507,-2.0,19.13,11111222 
TABS,ioos:station:wmo:42044:1,2010-03-29T18:00:00Z,26.1914,-97.0507,-2.0,19.15,11111222 
TABS,ioos:station:wmo:42044:1,2010-03-29T18:30:00Z,26.1914,-97.0507,-2.0,19.19,11111222 
TABS,ioos:station:wmo:42044:1,2010-03-29T19:00:00Z,26.1914,-97.0507,-2.0,19.27,11111222 
TABS,ioos:station:wmo:42044:1,2010-03-29T19:30:00Z,26.1914,-97.0507,-2.0,19.33,11111222 
TABS,ioos:station:wmo:42044:1,2010-03-29T20:00:00Z,26.1914,-97.0507,-2.0,19.33,11111222 
TABS,ioos:station:wmo:42044:1,2010-03-29T20:30:00Z,26.1914,-97.0507,-2.0,19.41,11111222 
TABS,ioos:station:wmo:42044:1,2010-03-29T21:00:00Z,26.1914,-97.0507,-2.0,19.51,11111222 
TABS,ioos:station:wmo:42044:1,2010-03-29T21:30:00Z,26.1914,-97.0507,-2.0,19.61,11111222 
TABS,ioos:station:wmo:42044:1,2010-03-29T22:00:00Z,26.1914,-97.0507,-2.0,19.71,11111222 
TABS,ioos:station:wmo:42044:1,2010-03-29T22:30:00Z,26.1914,-97.0507,-2.0,19.73,11111222 
TABS,ioos:station:wmo:42044:1,2010-03-29T23:00:00Z,26.1914,-97.0507,-2.0,19.77,11111222 
TABS,ioos:station:wmo:42044:1,2010-03-29T23:30:00Z,26.1914,-97.0507,-2.0,19.74,11111222 
TABS,ioos:station:wmo:42044:1,2010-03-30T00:00:00Z,26.1914,-97.0507,-2.0,19.66,11111222 
TABS,ioos:station:wmo:42044:1,2010-03-30T00:30:00Z,26.1914,-97.0507,-2.0,19.65,11111222 
TABS,ioos:station:wmo:42044:1,2010-03-30T01:00:00Z,26.1914,-97.0507,-2.0,19.67,11111222 
TABS,ioos:station:wmo:42044:1,2010-03-30T01:30:00Z,26.1914,-97.0507,-2.0,19.6,11111222 
TABS,ioos:station:wmo:42044:1,2010-03-30T02:00:00Z,26.1914,-97.0507,-2.0,19.59,11111222 
TABS,ioos:station:wmo:42044:1,2010-03-30T02:30:00Z,26.1914,-97.0507,-2.0,19.66,11111222 
TABS,ioos:station:wmo:42044:1,2010-03-30T03:00:00Z,26.1914,-97.0507,-2.0,19.48,11111222 
TABS,ioos:station:wmo:42044:1,2010-03-30T03:30:00Z,26.1914,-97.0507,-2.0,19.38,11111222 
TABS,ioos:station:wmo:42044:1,2010-03-30T04:00:00Z,26.1914,-97.0507,-2.0,19.4,11111222 
TABS,ioos:station:wmo:42044:1,2010-03-30T04:30:00Z,26.1914,-97.0507,-2.0,19.41,11111222 
TABS,ioos:station:wmo:42044:1,2010-03-30T05:00:00Z,26.1914,-97.0507,-2.0,19.38,11111222 
TABS,ioos:station:wmo:42044:1,2010-03-30T05:30:00Z,26.1914,-97.0507,-2.0,19.35,11111222 
TABS,ioos:station:wmo:42044:1,2010-03-30T06:00:00Z,26.1914,-97.0507,-2.0,19.32,11111222 
TABS,ioos:station:wmo:42044:1,2010-03-30T06:30:00Z,26.1914,-97.0507,-2.0,19.31,11111222 
TABS,ioos:station:wmo:42044:1,2010-03-30T07:00:00Z,26.1914,-97.0507,-2.0,19.3,11111222 
TABS,ioos:station:wmo:42044:1,2010-03-30T07:30:00Z,26.1914,-97.0507,-2.0,19.31,11111222 
TABS,ioos:station:wmo:42044:1,2010-03-30T08:00:00Z,26.1914,-97.0507,-2.0,19.31,11111222 
TABS,ioos:station:wmo:42044:1,2010-03-30T08:30:00Z,26.1914,-97.0507,-2.0,19.31,11111222 
TABS,ioos:station:wmo:42044:1,2010-03-30T09:00:00Z,26.1914,-97.0507,-2.0,19.31,11111222 
TABS,ioos:station:wmo:42044:1,2010-03-30T09:30:00Z,26.1914,-97.0507,-2.0,19.3,11111222 
TABS,ioos:station:wmo:42044:1,2010-03-30T10:00:00Z,26.1914,-97.0507,-2.0,19.26,11111222 
TABS,ioos:station:wmo:42044:1,2010-03-30T10:30:00Z,26.1914,-97.0507,-2.0,19.25,11111222 
TABS,ioos:station:wmo:42044:1,2010-03-30T11:00:00Z,26.1914,-97.0507,-2.0,19.24,11111222 
TABS,ioos:station:wmo:42044:1,2010-03-30T11:30:00Z,26.1914,-97.0507,-2.0,19.21,11111222 
TABS,ioos:station:wmo:42044:1,2010-03-30T12:00:00Z,26.1914,-97.0507,-2.0,19.22,11111222 
TABS,ioos:station:wmo:42044:1,2010-03-30T12:30:00Z,26.1914,-97.0507,-2.0,19.21,11111222 
TABS,ioos:station:wmo:42044:1,2010-03-30T13:00:00Z,26.1914,-97.0507,-2.0,19.21,11111222 
TABS,ioos:station:wmo:42044:1,2010-03-30T13:30:00Z,26.1914,-97.0507,-2.0,19.26,11111222 
TABS,ioos:station:wmo:42044:1,2010-03-30T14:00:00Z,26.1914,-97.0507,-2.0,19.45,11111222 
TABS,ioos:station:wmo:42044:1,2010-03-30T14:30:00Z,26.1914,-97.0507,-2.0,19.6,11111222 
TABS,ioos:station:wmo:42044:1,2010-03-30T15:00:00Z,26.1914,-97.0507,-2.0,19.64,11111222 
TABS,ioos:station:wmo:42044:1,2010-03-30T15:30:00Z,26.1914,-97.0507,-2.0,19.73,11111222 
TABS,ioos:station:wmo:42044:1,2010-03-30T16:00:00Z,26.1914,-97.0507,-2.0,19.79,11111222 
TABS,ioos:station:wmo:42044:1,2010-03-30T16:30:00Z,26.1914,-97.0507,-2.0,19.83,11111222 
TABS,ioos:station:wmo:42044:1,2010-03-30T17:00:00Z,26.1914,-97.0507,-2.0,19.87,11111222 
TABS,ioos:station:wmo:42044:1,2010-03-30T17:30:00Z,26.1914,-97.0507,-2.0,19.89,11111222 
TABS,ioos:station:wmo:42044:1,2010-03-30T18:00:00Z,26.1914,-97.0507,-2.0,19.94,11111222 
TABS,ioos:station:wmo:42044:1,2010-03-30T18:30:00Z,26.1914,-97.0507,-2.0,19.96,11111222 
TABS,ioos:station:wmo:42044:1,2010-03-30T19:00:00Z,26.1914,-97.0507,-2.0,20.0,11111222 
TABS,ioos:station:wmo:42044:1,2010-03-30T19:30:00Z,26.1914,-97.0507,-2.0,20.02,11111222 
TABS,ioos:station:wmo:42044:1,2010-03-30T20:00:00Z,26.1914,-97.0507,-2.0,20.03,11111222 
TABS,ioos:station:wmo:42044:1,2010-03-30T20:30:00Z,26.1914,-97.0507,-2.0,20.04,11111222 
TABS,ioos:station:wmo:42044:1,2010-03-30T21:00:00Z,26.1914,-97.0507,-2.0,20.03,11111222 